Lid_Strength_Index
6 7 7 7 7 6 5 4 4 4 6 7 9 9 11 11 11 11 10 11 12 12 12 13 14 14 15 16 15 15 15 14 14 15 15 14 13 13 14 14 14 15 14
8 8 8 8 6 6 5 4 5 6 6 7 10 11 10 11 12 12 12 11 13 12 14 14 15 15 15 16 16 16 16 15 14 16 16 17 16 15 14 15 14 16 15
7 8 8 7 6 6 5 4 6 8 9 10 11 12 12 12 13 13 13 14 13 14 14 15 15 16 15 15 16 16 16 16 15 15 16 19 20 18 16 15 14 15 16
7 7 8 7 6 6 5 5 6 9 9 10 11 11 11 12 13 14 14 14 15 15 15 15 15 15 15 16 15 15 16 16 16 16 14 16 16 19 19 16 15 16 16
6 7 7 6 6 6 6 7 8 8 9 10 10 12 13 14 14 15 16 15 15 15 15 15 15 15 16 16 16 17 16 16 16 17 17 17 17 18 19 20 19 17 16
7 7 6 5 7 7 8 8 8 9 9 10 12 12 15 15 16 16 17 16 16 16 15 15 16 16 16 16 16 16 17 17 17 17 18 18 18 18 19 20 19 19 18
9 7 6 6 8 8 9 8 8 10 9 10 11 12 14 14 16 16 16 16 16 16 16 16 16 16 16 16 16 16 17 17 18 18 18 17 17 17 18 19 19 19 17
8 7 6 6 7 8 9 9 10 11 11 11 13 14 14 15 15 15 15 16 16 16 17 16 16 17 17 17 17 17 17 17 18 19 18 18 18 17 17 17 18 19 19
8 6 6 7 8 9 9 10 11 13 13 14 14 15 14 15 16 17 16 16 16 16 17 17 17 17 17 17 17 17 18 19 18 18 18 18 17 16 16 16 16 17 20
7 6 7 8 8 10 11 12 12 14 14 15 15 16 17 17 17 16 17 17 17 16 17 17 17 17 17 17 18 18 18 18 18 17 18 17 16 16 15 16 15 16 17
7 8 9 10 11 11 12 13 14 15 16 16 16 17 17 17 17 17 17 17 17 17 17 17 17 17 17 18 18 18 18 18 18 18 17 16 16 16 16 16 15 16 16
9 10 11 11 12 13 13 14 15 16 16 16 17 17 17 17 17 17 17 17 17 17 17 17 17 18 18 18 18 18 18 18 18 17 17 16 14 16 16 16 16 16 16
11 12 12 12 13 14 14 15 15 16 16 16 17 17 17 17 18 18 17 17 17 17 17 18 18 18 17 18 18 18 18 17 17 17 17 16 16 17 16 16 16 16 14
11 11 12 13 14 14 15 16 16 16 16 17 17 17 18 18 18 18 18 17 17 17 18 18 18 18 18 18 17 17 17 16 16 16 16 16 16 16 16 15 15 14 15
11 11 13 14 14 15 16 16 16 16 16 16 17 18 18 18 18 18 17 17 17 18 18 18 18 18 18 16 16 15 15 16 16 16 16 15 14 12 12 13 14 13 13
11 12 12 14 14 15 16 16 16 16 16 17 17 17 17 18 18 17 18 17 18 19 19 19 19 19 17 14 12 12 15 15 16 16 15 15 14 14 11 11 9 9 10
11 12 13 13 14 15 15 16 16 16 17 17 17 17 18 17 17 16 17 18 19 20 19 19 19 19 19 13 12 11 14 15 16 16 16 15 14 13 14 11 8 8 7
10 11 12 13 14 15 15 16 16 17 17 17 18 17 17 17 17 18 18 19 20 19 19 19 19 20 18 13 12 11 15 15 16 16 16 16 15 14 11 11 10 11 11
10 11 12 13 15 16 16 16 17 17 17 18 17 17 17 17 18 19 20 19 19 19 20 19 20 20 19 13 12 12 15 15 16 15 15 15 13 11 8 10 11 12 13
10 12 13 14 15 16 16 16 18 18 17 17 17 17 17 17 19 19 19 19 19 19 18 19 19 17 18 14 12 12 14 16 15 14 14 11 11 8 8 10 12 14 14
12 13 14 15 16 16 16 17 17 17 17 17 17 17 17 19 19 19 19 20 20 19 20 19 19 18 17 17 12 12 14 15 14 15 13 12 9 8 8 8 13 13 11
14 14 16 17 16 15 15 17 18 18 18 17 17 18 19 18 18 19 20 20 20 20 20 19 18 17 18 14 13 12 11 11 14 13 12 11 8 9 9 11 11 10 11
15 15 16 17 17 16 15 17 18 18 17 17 19 19 19 19 19 20 20 20 20 20 20 18 18 17 16 17 13 12 11 11 12 11 10 9 9 10 12 12 11 11 15
16 16 16 17 19 17 16 17 18 18 18 20 20 19 19 20 20 18 19 20 20 20 18 18 17 18 17 17 15 15 14 11 11 10 11 11 11 12 13 14 14 14 14
16 16 17 18 19 18 19 19 19 19 19 20 19 19 19 20 19 19 20 20 19 17 17 17 17 18 17 15 12 12 12 12 11 11 13 15 16 16 16 15 15 14 14
17 17 18 18 19 19 19 19 19 19 19 20 19 18 19 20 19 20 20 16 14 13 13 13 14 15 13 12 12 11 9 9 10 13 16 17 16 16 16 16 15 15 14